STARLINK-34468

Last updated on Thu Jul 03 2025 00:02:07 GMT+0000 (Coordinated Universal Time)

1 64424U 25129N 25183.58335648 -.01556635 00000+0 -18475-1 0 9998 2 64424 70.0000 351.5552 0003315 264.3756 30.2604 15.63976280 3689
UTC large
Height (km)
Speed (km/s)
/
Latitude / Longitude
Inclination (degrees)
Orbital Period (minutes)
Azimuth
Elevation
Range (km)
Doppler Factor

Next 0 passes for location: London (51.5072 / 0.1276)

Sorry there are no passes over London.